Location: Ferchesar
(52.6477°N, 12.4298°E)
Time: 04:13:36
(UTC+01:00)

Vanguard 1 Rocket - Pass Details

Date: 14 December 2021
Orbit: 651 x 4224 km, 34.3° (Epoch: 15 January)

Event Time Altitude Azimuth Distance (km) Brightness Sun altitude
Rises 07:23:09 0° 261° (W) 5,952 11.1 -7.3°
Reaches altitude 10° 07:31:13 10° 234° (SW) 5,821 11.3 -6.2°
Maximum altitude 07:36:24 12° 218° (SW) 6,134 11.6 -5.6°
Drops below altitude 10° 07:42:18 10° 201° (SSW) 6,734 12.0 -4.8°
Sets 07:54:44 0° 177° (S) 8,347 12.9 -3.2°
